FW0304 Weather Reports


Display with metric or nautical units.
time (UTC)temp
F
wind
direction
speed
MPH
gust
MPH
rain 1hr
in
rain 24hr
in
rain mn
in
humidity
%
barometer
mb
20260902030031 79 35 0.0 0.0 0.00 0.00 0.00 83 1017.6
20260902024534 79 35 0.0 0.0 0.00 0.00 0.00 82 1017.4
20260902023017 80 35 0.0 0.0 0.00 0.00 0.00 82 1017.3
20260902021526 80 35 0.0 0.0 0.00 0.00 0.00 81 1017.1
20260902020032 81 35 0.0 0.0 0.00 0.00 0.00 81 1017.0
20260902014534 81 35 0.0 0.0 0.00 0.00 0.00 80 1016.7
20260902013034 82 35 0.0 0.0 0.00 0.00 0.00 79 1016.6
20260902011524 82 35 0.0 0.0 0.00 0.00 0.00 78 1016.5
20260902010038 83 35 0.0 0.0 0.00 0.00 0.00 76 1016.3
20260902004535 84 35 0.0 0.0 0.00 0.00 0.00 73 1016.4
20260902003110 85 35 0.0 0.0 0.00 0.00 0.00 71 1016.3
20260902001522 86 35 0.0 0.0 0.00 0.00 0.00 70 1016.3
20260902000032 88 35 0.0 0.0 0.00 0.00 0.00 68 1016.3
20260901234530 89 35 0.0 0.0 0.00 0.00 0.00 66 1016.4
20260901233003 91 35 0.0 2.0 0.00 0.00 0.00 59 1016.5
20260901231507 93 34 0.0 2.0 0.00 0.00 0.00 56 1016.5
20260901230008 94 100 0.0 2.0 0.00 0.00 0.00 48 1016.5
20260901224508 94 352 0.0 2.0 0.00 0.00 0.00 47 1016.4
20260901223007 94 101 0.0 2.0 0.00 0.00 0.00 47 1016.5
20260901221503 94 156 0.0 4.0 0.00 0.00 0.00 48 1016.5
20260901220013 95 9 0.0 2.0 0.00 0.00 0.00 45 1016.4
20260901214506 95 97 0.0 3.0 0.00 0.00 0.00 48 1016.5
20260901213008 95 182 0.0 2.0 0.00 0.00 0.00 47 1016.5
20260901211509 95 134 1.0 3.0 0.00 0.00 0.00 48 1016.7
20260901210008 94 34 1.0 2.0 0.00 0.00 0.00 49 1016.8
20260901204512 94 161 0.0 4.0 0.00 0.00 0.00 51 1016.9
20260901203008 94 200 0.0 3.0 0.00 0.00 0.00 50 1017.1
20260901201508 95 150 0.0 3.0 0.00 0.00 0.00 49 1017.3
20260901200010 95 173 0.0 8.0 0.00 0.00 0.00 49 1017.4
20260901194510 95 331 1.0 4.0 0.00 0.00 0.00 47 1017.5
20260901193010 96 139 1.0 4.0 0.00 0.00 0.00 46 1017.7
20260901191511 95 223 0.0 4.0 0.00 0.00 0.00 48 1017.8
20260901190013 95 196 1.0 3.0 0.00 0.00 0.00 47 1018.0
20260901184512 95 96 0.0 3.0 0.00 0.00 0.00 47 1018.1
20260901183011 95 61 0.0 3.0 0.00 0.00 0.00 46 1018.4
20260901181512 94 325 0.0 4.0 0.00 0.00 0.00 51 1018.4
20260901180013 94 68 0.0 3.0 0.00 0.00 0.00 51 1018.8
20260901174511 94 168 0.0 2.0 0.00 0.00 0.00 51 1018.9
20260901173014 92 119 0.0 3.0 0.00 0.00 0.00 55 1019.2
20260901171513 93 203 0.0 3.0 0.00 0.00 0.00 54 1019.3
20260901170016 93 332 1.0 3.0 0.00 0.00 0.00 54 1019.5
20260901164512 92 5 1.0 2.0 0.00 0.00 0.00 57 1019.7
20260901163029 91 313 0.0 2.0 0.00 0.00 0.00 60 1019.8
20260901161520 92 103 0.0 2.0 0.00 0.00 0.00 58 1019.8
20260901160016 91 150 0.0 3.0 0.00 0.00 0.00 60 1020.0
20260901154532 91 222 0.0 2.0 0.00 0.00 0.00 63 1019.9
20260901153025 91 21 0.0 2.0 0.00 0.00 0.00 65 1020.0
20260901151515 88 329 0.0 2.0 0.00 0.00 0.00 67 1020.0
20260901150015 88 211 0.0 2.0 0.00 0.00 0.00 70 1020.0
20260901144520 87 352 0.0 2.0 0.00 0.00 0.00 71 1019.9
20260901143016 86 291 0.0 2.0 0.00 0.00 0.00 73 1019.9
20260901141505 84 9 0.0 2.0 0.00 0.00 0.00 76 1020.0
20260901140004 83 17 0.0 2.0 0.00 0.00 0.00 76 1020.1
20260901134509 81 103 0.0 2.0 0.00 0.00 0.00 79 1020.1
20260901133015 80 126 0.0 2.0 0.00 0.00 0.00 82 1020.0
20260901131523 78 105 0.0 2.0 0.00 0.00 0.00 86 1019.9
20260901130007 77 21 0.0 2.0 0.00 0.00 0.00 88 1019.9
20260901124506 75 101 0.0 2.0 0.00 0.00 0.00 91 1019.9
20260901123014 74 101 0.0 0.0 0.00 0.00 0.00 92 1019.7
20260901121531 73 101 0.0 0.0 0.00 0.00 0.00 93 1019.7
20260901120025 73 101 0.0 0.0 0.00 0.00 0.00 93 1019.5
20260901114508 72 101 0.0 0.0 0.00 0.00 0.00 93 1019.3
20260901113013 72 101 0.0 0.0 0.00 0.00 0.00 93 1018.9
20260901111518 73 101 0.0 0.0 0.00 0.00 0.00 93 1018.6
20260901110027 73 101 0.0 0.0 0.00 0.00 0.00 93 1018.6
20260901104513 73 101 0.0 0.0 0.00 0.00 0.00 93 1018.6
20260901103017 73 101 0.0 0.0 0.00 0.00 0.00 93 1018.6
20260901101516 73 101 0.0 0.0 0.00 0.00 0.00 93 1018.4
20260901100024 73 101 0.0 0.0 0.00 0.00 0.00 92 1018.4
20260901094527 73 101 0.0 0.0 0.00 0.00 0.00 92 1018.3
20260901093008 74 101 0.0 0.0 0.00 0.00 0.00 92 1018.4
20260901091515 74 101 0.0 0.0 0.00 0.00 0.00 91 1018.5
20260901090035 74 101 0.0 0.0 0.00 0.00 0.00 91 1018.4
20260901084524 74 101 0.0 0.0 0.00 0.00 0.00 91 1018.1
20260901083031 74 101 0.0 0.0 0.00 0.00 0.00 92 1018.0
20260901081508 74 101 0.0 0.0 0.00 0.00 0.00 92 1017.9
20260901080018 74 101 0.0 0.0 0.00 0.00 0.00 92 1017.9
20260901074523 75 101 0.0 0.0 0.00 0.00 0.00 91 1017.8
20260901073029 75 101 0.0 0.0 0.00 0.00 0.00 91 1017.9
20260901071512 75 101 0.0 0.0 0.00 0.00 0.00 91 1017.9
20260901070016 75 101 0.0 0.0 0.00 0.00 0.00 91 1018.0
20260901064524 75 101 0.0 0.0 0.00 0.00 0.00 91 1018.0
20260901063033 75 101 0.0 0.0 0.00 0.00 0.00 91 1017.9
20260901061533 76 101 0.0 0.0 0.00 0.00 0.00 90 1017.8
20260901060020 76 101 0.0 0.0 0.00 0.00 0.00 89 1017.8
20260901054524 77 101 0.0 0.0 0.00 0.00 0.00 89 1017.8
20260901053027 76 101 0.0 0.0 0.00 0.00 0.00 90 1017.7
20260901051506 77 101 0.0 0.0 0.00 0.00 0.00 89 1017.7
20260901050009 77 101 0.0 0.0 0.00 0.00 0.00 90 1017.8
20260901044519 77 101 0.0 0.0 0.00 0.00 0.00 90 1017.9
20260901043023 77 101 0.0 0.0 0.00 0.00 0.00 88 1017.9
20260901041527 77 101 0.0 0.0 0.00 0.00 0.00 89 1018.0
20260901040015 77 101 0.0 0.0 0.00 0.00 0.00 89 1018.0
20260901034512 77 101 0.0 0.0 0.00 0.00 0.00 88 1018.0
20260901033031 78 101 0.0 0.0 0.00 0.00 0.00 87 1018.0
20260901031538 78 101 0.0 0.0 0.00 0.00 0.00 87 1018.1